#timestamp,LO_Frequency,Hit 
1501844415.1,286046988.6,N
1501844435.8,286046991.1,N
1501844455.7,286046990.8,N
1501844475.5,286046990.9,N
1501844495.3,286046988.6,N
1501844515.2,286046989.0,N
1501844535.9,286046991.1,N
1501844555.7,286046991.6,N
1501844575.5,286046988.8,N
1501844595.4,286046990.3,N
1501844615.2,286046989.2,N
1501844635.0,286046991.4,N
1501844635.9,286046991.4,N
1501844655.8,286046991.0,N
1501844675.6,286046988.5,N
1501844695.4,286046990.6,N
1501844715.3,286046991.5,N
1501844735.1,286046991.5,N
1501844755.8,286046991.6,N
1501844775.7,286046991.2,N
1501844795.5,286046990.9,N
1501844815.3,286046991.5,N
1501844835.2,286046989.9,N
1501844855.9,286046987.2,N
1501844875.7,286046989.1,N
1501844895.5,286046990.0,N
1501844915.4,286046988.6,N
1501844935.2,286046987.3,N
1501844955.0,286046986.9,N
1501844955.9,286046986.9,N
1501844975.8,286046989.4,N
1501844995.6,286046989.2,N
1501845015.4,286046990.0,N
1501845035.3,286046988.0,N
1501845055.1,286046985.6,N
1501845056.0,286046985.6,N
1501845075.8,286046985.4,N
1501845095.7,286046988.3,N
1501845115.5,286046987.0,N
1501845135.3,286046989.7,N
1501845155.2,286046988.6,N
1501845175.9,286046989.6,N
1501845195.7,286046988.1,N
1501845215.5,286046987.3,N
1501845235.4,286046988.8,N
1501845255.2,286046991.6,N
1501845275.0,286046988.5,N
1501845275.9,286046988.5,N
1501845295.8,286046989.4,N
1501845315.6,286046989.6,N
1501845335.4,286046989.0,N
1501845355.3,286046987.3,N
1501845375.1,286046989.1,N
1501845395.8,286046989.6,N
1501845415.7,286046989.2,N
1501845435.5,286046986.9,N
1501845455.3,286046987.9,N
1501845475.2,286046989.6,N
1501845495.9,286046989.0,N
1501845515.7,286046988.5,N
1501845535.5,286046989.1,N
1501845555.4,286046991.1,N
1501845575.2,286046991.1,N
1501845595.0,286046989.0,N
1501845595.9,286046989.0,N
1501845615.8,286046988.5,N
1501845635.6,286046991.0,N
1501845655.4,286046990.8,N
1501845675.3,286046991.1,N
1501845695.1,286046991.6,N
1501845696.0,286046991.6,N
1501845715.8,286046991.5,N
1501845735.7,286046989.0,N
1501845755.5,286046988.9,N
1501845775.3,286046989.9,N
1501845795.2,286046989.5,N
1501845815.9,286046988.6,N
1501845835.7,286046989.3,N
1501845855.5,286046986.9,N
1501845875.4,286046989.5,N
1501845895.2,286046989.7,N
1501845915.0,286046989.9,N
1501845915.9,286046989.9,N
1501845935.8,286046987.8,N
1501845955.6,286046988.3,N
1501845975.4,286046987.1,N
1501845995.3,286046985.4,N
1501846015.1,286046986.0,N
1501846016.0,286046986.0,N
1501846035.8,286046985.4,N
1501846055.7,286046986.2,N
1501846075.5,286046985.6,N
1501846095.3,286046985.8,N
1501846115.1,286046986.1,N
1501846135.9,286046988.0,N
1501846155.7,286046984.4,N
1501846175.5,286046984.1,N
1501846195.4,286046986.6,N
1501846215.2,286046986.6,N
1501846235.0,286046986.1,N
1501846235.9,286046986.1,N
1501846255.8,286046988.2,N
1501846275.6,286046986.7,N
1501846295.4,286046986.5,N
1501846315.3,286046986.7,N
1501846335.1,286046985.7,N
1501846336.0,286046985.7,N
1501846355.8,286046986.5,N
1501846375.7,286046984.0,N
1501846395.5,286046986.6,N
1501846415.3,286046984.6,N
1501846435.1,286046986.3,N
1501846455.9,286046986.6,N
1501846475.7,286046984.2,N
1501846495.5,286046985.3,N
1501846515.4,286046988.3,N
1501846535.2,286046985.7,N
1501846555.0,286046986.3,N
1501846555.9,286046986.3,N
1501846575.8,286046985.6,N
1501846595.6,286046984.2,N
1501846615.4,286046986.5,N
1501846635.3,286046986.2,N
1501846655.1,286046986.8,N
1501846656.0,286046986.8,N
1501846675.8,286046984.0,N
1501846695.6,286046986.8,N
1501846715.5,286046984.0,N
1501846735.3,286046984.9,N
1501846755.1,286046986.4,N
1501846775.9,286046986.6,N
1501846795.7,286046983.8,N
1501846815.5,286046986.2,N
1501846835.4,286046986.6,N
1501846855.2,286046983.9,N
1501846875.0,286046984.8,N
1501846875.9,286046984.8,N
1501846895.8,286046983.9,N
1501846915.6,286046986.7,N
1501846935.4,286046985.2,N
1501846955.3,286046982.1,N
1501846975.1,286046984.1,N
1501846976.0,286046984.1,N
1501846995.8,286046984.2,N
1501847015.7,286046985.0,N
1501847035.5,286046984.5,N
1501847055.3,286046984.3,N
1501847075.1,286046986.7,N
1501847095.9,286046983.9,N
1501847115.7,286046985.0,N
1501847135.5,286046984.4,N
1501847155.4,286046984.2,N
1501847175.2,286046986.8,N
1501847195.0,286046986.6,N
1501847195.9,286046986.6,N
1501847215.8,286046986.6,N
1501847235.6,286046985.1,N
1501847255.4,286046984.5,N
1501847275.3,286046984.0,N
1501847295.1,286046983.9,N
1501847296.0,286046983.9,N
1501847315.8,286046984.5,N
1501847335.7,286046983.7,N
1501847355.5,286046984.0,N
1501847375.3,286046985.2,N
1501847395.1,286046985.0,N
1501847415.9,286046984.4,N
1501847435.7,286046986.4,N
1501847455.5,286046984.0,N
1501847475.4,286046986.4,N
1501847495.2,286046984.9,N
1501847515.0,286046983.9,N
1501847515.9,286046983.9,N
1501847535.8,286046983.9,N
1501847555.6,286046985.7,N
1501847575.4,286046986.0,N
1501847595.3,286046985.3,N
1501847615.1,286046986.1,N
1501847616.0,286046986.1,N
1501847635.8,286046985.9,N
1501847655.7,286046985.5,N
1501847675.5,286046988.3,N
1501847695.3,286046985.6,N
1501847715.1,286046986.0,N
1501847735.9,286046985.5,N
1501847755.7,286046986.1,N
1501847775.5,286046985.9,N
1501847795.4,286046985.9,N
1501847815.2,286046986.3,N
1501847835.0,286046986.3,N
1501847835.9,286046986.3,N
1501847855.8,286046984.5,N
1501847875.6,286046985.6,N
1501847895.4,286046986.7,N
1501847915.3,286046986.4,N
1501847935.1,286046983.9,N
1501847936.0,286046983.9,N
1501847955.8,286046984.1,N
1501847975.7,286046984.6,N
1501847995.5,286046985.0,N
